User: anonymous   Login
Location: ??????
(41.3164°N, 22.6615°E)
Time: 19:31:16
(UTC+00:00)
Language:

MOZHAYETS 4 - Orbit

View from above orbital plane
View from above orbital plane
View from above satellite
View from above satellite

Ground track
Ground track

The orbit data is extracted from the following two-line orbital elements,

1 27939U 03042A   22177.46710030  .00000569  00000-0  10942-3 0  9998
2 27939  98.1924 318.1856 0013180 173.8509 186.2869 14.67370776  2362
Epoch (UTC): 26 June 2022 11:12:37
Eccentricity: 0.0013180
inclination: 98.1924°
perigee height: 660 km
apogee height: 679 km
right ascension of ascending node: 318.1856°
argument of perigee: 173.8509°
revolutions per day: 14.67370776
mean anomaly at epoch: 186.2869°
orbit number at epoch: 236

The dashed part of the orbit path shows where the satellite is in the earth's shadow,  

DLR